Measurement date,Total daily rainfall,Maximum daily air temperature,Minimum daily air temperature
Date ,Rainfall,Air temperature,Air temperature
Units: Year month day,Units: millimetre,Units: degree Celsius,Units: degree Celsius
2012-01-01,3.4,11.7,5.6
2012-01-02,9.5,8.4,2.5
2012-01-03,35.5,12.3,6.1
2012-01-04,4.2,9.0,6.0
2012-01-05,9.5,10.7,7.2
2012-01-06,0.6,9.8,3.8
2012-01-07,1.3,10.2,7.6
2012-01-08,0.2,10.6,7.4
2012-01-09,0.0,11.3,8.8
2012-01-10,0.6,10.9,7.3
2012-01-11,0.0,11.1,7.0
2012-01-12,0.8,10.6,3.8
2012-01-13,0.2,7.2,-1.6
2012-01-14,0.2,7.3,-1.2
2012-01-15,0.0,6.4,3.1
2012-01-16,0.0,6.4,-2.4
2012-01-17,0.2,9.6,-1.8
2012-01-18,1.7,12.0,9.1
2012-01-19,4.4,11.4,6.3
2012-01-20,0.6,10.5,6.3
2012-01-21,1.5,10.3,7.7
2012-01-22,0.0,10.1,4.9
2012-01-23,2.7,9.4,4.8
2012-01-24,7.8,10.4,4.0
2012-01-25,3.2,10.7,6.2
2012-01-26,6.5,8.5,2.9
2012-01-27,4.4,9.1,3.2
2012-01-28,0.2,6.6,-0.6
2012-01-29,7.6,3.9,-1.8
2012-01-30,9.9,2.7,0.3
2012-01-31,0.4,1.8,-1.0
2012-02-01,0.0,1.9,-2.3
2012-02-02,0.0,0.9,-5.4
2012-02-03,0.0,1.2,-7.7
2012-02-04,5.0,7.8,-3.1
2012-02-05,0.0,7.9,3.1
2012-02-06,0.6,7.6,3.3
2012-02-07,0.0,5.3,-1.7
2012-02-08,0.2,0.4,-6.1
2012-02-09,2.3,6.1,-3.0
2012-02-10,8.6,4.4,0.8
2012-02-11,0.0,3.2,-4.8
2012-02-12,0.4,7.1,-4.9
2012-02-13,0.6,7.5,3.4
2012-02-14,0.2,8.8,2.6
2012-02-15,0.0,8.8,6.7
2012-02-16,0.0,9.2,6.4
2012-02-17,0.6,10.7,7.3
2012-02-18,5.5,9.1,2.4
2012-02-19,0.2,8.0,-1.2
2012-02-20,0.0,8.9,-2.6
2012-02-21,0.0,11.1,5.9
2012-02-22,2.5,11.4,7.2
2012-02-23,0.6,11.9,8.4
2012-02-24,0.0,11.2,8.2
2012-02-25,1.1,11.8,6.3
2012-02-26,0.0,12.9,0.4
2012-02-27,1.1,11.3,7.3
2012-02-28,0.0,11.2,8.8
2012-02-29,0.0,16.2,3.7
2012-03-01,0.2,15.2,2.6
2012-03-02,0.2,13.9,3.4
2012-03-03,2.7,12.6,6.3
2012-03-04,11.3,8.5,3.9
2012-03-05,0.0,9.4,2.1
2012-03-06,0.6,10.9,-1.6
2012-03-07,2.1,11.2,4.1
2012-03-08,0.0,12.5,3.5
2012-03-09,0.0,11.9,7.9
2012-03-10,0.2,12.3,7.4
2012-03-11,0.2,15.0,6.8
2012-03-12,0.2,15.8,3.7
2012-03-13,0.4,11.3,1.9
2012-03-14,0.0,9.4,4.9
2012-03-15,0.0,9.9,4.7
2012-03-16,0.0,9.9,6.2
2012-03-17,6.9,12.0,2.5
2012-03-18,1.1,10.2,2.2
2012-03-19,0.2,12.4,-1.0
2012-03-20,0.0,10.7,7.4
2012-03-21,0.0,13.8,5.3
2012-03-22,3.2,14.3,5.3
2012-03-23,0.2,16.2,3.5
2012-03-24,0.0,18.7,4.5
2012-03-25,0.0,18.2,5.6
2012-03-26,0.0,18.2,4.1
2012-03-27,0.0,17.7,3.7
2012-03-28,0.0,20.8,1.8
2012-03-29,0.0,19.6,1.8
2012-03-30,0.0,13.9,5.8
2012-03-31,0.0,11.4,4.4
2012-04-01,0.0,11.8,1.0
2012-04-02,0.2,13.9,-0.7
2012-04-03,4.4,13.5,3.2
2012-04-04,0.8,8.1,2.9
2012-04-05,0.4,8.5,3.8
2012-04-06,0.2,11.9,-1.6
2012-04-07,0.8,13.6,6.3
2012-04-08,0.4,12.7,7.2
2012-04-09,18.5,11.0,6.1
2012-04-10,3.4,11.5,3.8
2012-04-11,2.3,11.8,3.6
2012-04-12,0.2,12.8,2.9
2012-04-13,2.5,13.5,-0.5
2012-04-14,0.6,9.8,0.9
2012-04-15,0.0,10.4,1.1
2012-04-16,0.0,12.6,-0.5
2012-04-17,10.7,11.5,4.9
2012-04-18,11.8,8.8,5.5
2012-04-19,3.6,10.8,5.3
2012-04-20,4.6,11.4,3.6
2012-04-21,1.9,11.6,2.4
2012-04-22,10.1,10.6,3.6
2012-04-23,12.8,7.8,4.4
2012-04-24,5.5,13.1,4.1
2012-04-25,35.1,11.6,4.8
2012-04-26,6.5,12.4,6.9
2012-04-27,1.9,13.0,6.6
2012-04-28,4.8,8.5,6.4
2012-04-29,30.7,9.9,3.6
2012-04-30,19.5,12.5,6.3
2012-05-01,8.4,15.3,6.6
2012-05-02,0.2,19.0,2.8
2012-05-03,3.6,10.1,7.6
2012-05-04,0.0,13.0,6.7
2012-05-05,0.8,10.1,4.1
2012-05-06,0.2,11.9,1.2
2012-05-07,8.0,15.5,5.5
2012-05-08,2.3,16.3,8.2
2012-05-09,6.9,14.4,7.1
2012-05-10,1.7,17.0,10.2
2012-05-11,0.0,12.7,5.4
2012-05-12,0.0,14.4,1.4
2012-05-13,0.2,15.8,2.3
2012-05-14,2.3,13.4,6.0
2012-05-15,0.6,11.4,3.3
2012-05-16,0.2,15.5,0.7
2012-05-17,0.6,12.9,5.4
2012-05-18,0.0,12.9,3.7
2012-05-19,0.0,15.7,4.9
2012-05-20,3.2,16.4,6.5
2012-05-21,0.2,16.9,2.8
2012-05-22,0.2,20.3,5.8
2012-05-23,0.0,20.3,8.0
2012-05-24,0.0,25.2,9.5
2012-05-25,0.2,26.5,13.3
2012-05-26,0.0,23.4,12.2
2012-05-27,4.4,18.5,9.1
2012-05-28,0.0,20.2,7.1
2012-05-29,0.0,22.1,9.6
2012-05-30,0.0,20.6,9.1
2012-05-31,0.0,20.1,11.8
2012-06-01,0.0,21.0,13.5
2012-06-02,5.3,18.6,10.4
2012-06-03,5.0,15.8,10.7
2012-06-04,0.0,16.2,8.5
2012-06-05,13.7,18.4,9.1
2012-06-06,2.7,18.2,11.3
2012-06-07,19.7,16.5,11.3
2012-06-08,13.7,14.1,9.9
2012-06-09,0.6,16.6,8.9
2012-06-10,5.3,14.1,10.3
2012-06-11,15.5,16.8,10.0
2012-06-12,11.3,17.8,9.5
2012-06-13,29.0,16.7,8.9
2012-06-14,12.0,13.2,8.2
2012-06-15,2.1,16.1,11.6
2012-06-16,5.7,15.2,11.1
2012-06-17,4.4,17.3,10.2
2012-06-18,1.1,18.2,7.3
2012-06-19,0.0,20.3,6.9
2012-06-20,11.3,17.8,4.6
2012-06-21,18.5,15.3,9.8
2012-06-22,6.3,16.3,10.7
2012-06-23,12.2,16.7,10.6
2012-06-24,1.5,18.4,10.0
2012-06-25,0.4,19.6,9.8
2012-06-26,2.9,20.9,11.2
2012-06-27,1.5,22.2,15.0
2012-06-28,1.1,23.1,14.7
2012-06-29,0.6,18.6,13.4
2012-06-30,7.1,18.0,9.9
2012-07-01,1.9,19.0,8.8
2012-07-02,2.3,18.7,13.5
2012-07-03,7.6,17.1,14.3
2012-07-04,0.6,19.8,13.2
2012-07-05,0.0,18.5,12.8
2012-07-06,10.5,18.5,11.4
2012-07-07,17.2,16.6,11.6
2012-07-08,0.0,18.9,11.2
2012-07-09,1.5,18.4,11.1
2012-07-10,2.7,17.0,11.4
2012-07-11,1.5,18.1,10.6
2012-07-12,22.3,15.8,8.8
2012-07-13,4.2,17.6,11.6
2012-07-14,1.1,18.3,11.3
2012-07-15,1.9,17.5,10.0
2012-07-16,6.3,16.7,12.8
2012-07-17,0.6,21.7,13.6
2012-07-18,10.3,17.8,13.0
2012-07-19,0.4,18.1,10.4
2012-07-20,0.0,19.5,9.2
2012-07-21,0.0,20.8,7.8
2012-07-22,0.0,23.3,8.8
2012-07-23,0.2,24.4,7.7
2012-07-24,0.0,27.7,7.1
2012-07-25,0.0,27.4,8.3
2012-07-26,0.0,26.7,12.1
2012-07-27,0.0,21.9,10.9
2012-07-28,0.0,18.2,9.9
2012-07-29,7.6,18.2,10.4
2012-07-30,2.9,18.6,10.1
2012-07-31,1.3,20.7,12.4
2012-08-01,2.1,21.0,13.9
2012-08-02,12.2,19.0,11.6
2012-08-03,5.0,19.1,10.5
2012-08-04,3.8,19.8,12.4
2012-08-05,15.5,18.7,12.1
2012-08-06,2.1,16.9,11.0
2012-08-07,2.3,19.7,12.1
2012-08-08,1.3,21.1,16.1
2012-08-09,0.0,26.8,15.2
2012-08-10,0.0,24.7,12.7
2012-08-11,0.6,22.1,13.6
2012-08-12,0.0,22.8,13.2
2012-08-13,0.4,22.0,15.2
2012-08-14,1.3,23.2,12.9
2012-08-15,9.5,19.5,15.4
2012-08-16,12.8,20.0,13.8
2012-08-17,5.5,23.4,16.0
2012-08-18,0.6,23.5,16.2
2012-08-19,0.6,21.8,14.8
2012-08-20,0.0,22.6,14.4
2012-08-21,3.8,20.8,12.9
2012-08-22,0.2,19.7,12.8
2012-08-23,0.4,19.6,12.1
2012-08-24,7.6,19.8,12.2
2012-08-25,3.2,18.3,14.0
2012-08-26,0.2,19.3,11.7
2012-08-27,4.6,18.2,14.2
2012-08-28,0.0,20.6,13.3
2012-08-29,12.8,18.7,13.1
2012-08-30,3.8,16.7,9.3
2012-08-31,0.0,17.8,6.3
2012-09-01,0.0,20.7,12.3
2012-09-02,0.4,17.7,12.2
2012-09-03,0.0,22.2,12.3
2012-09-04,0.6,19.5,10.8
2012-09-05,0.0,19.4,8.6
2012-09-06,0.0,21.8,5.6
2012-09-07,0.2,23.3,5.1
2012-09-08,0.2,21.9,4.1
2012-09-09,0.8,20.6,8.5
2012-09-10,1.3,18.8,14.5
2012-09-11,0.6,15.9,10.5
2012-09-12,2.3,17.8,9.6
2012-09-13,0.2,17.8,4.8
2012-09-14,1.5,17.3,11.1
2012-09-15,0.2,18.5,8.5
2012-09-16,1.1,18.6,12.0
2012-09-17,0.2,18.0,10.2
2012-09-18,2.5,15.5,7.2
2012-09-19,0.2,15.8,6.7
2012-09-20,0.0,14.8,7.6
2012-09-21,0.0,15.7,6.4
2012-09-22,0.2,14.3,4.8
2012-09-23,21.2,10.8,8.4
2012-09-24,35.3,15.4,9.0
2012-09-25,4.4,16.1,8.3
2012-09-26,11.1,15.4,9.4
2012-09-27,2.1,14.8,9.1
2012-09-28,1.5,15.6,10.4
2012-09-29,0.0,14.7,8.6
2012-09-30,1.9,16.2,9.6
2012-10-01,3.2,16.3,9.8
2012-10-02,3.8,16.7,10.9
2012-10-03,2.9,13.7,8.8
2012-10-04,5.7,15.4,6.8
2012-10-05,33.8,15.8,8.7
2012-10-06,10.7,14.4,4.3
2012-10-07,0.2,13.3,2.0
2012-10-08,6.5,17.1,11.8
2012-10-09,16.6,12.4,10.8
2012-10-10,1.9,13.4,10.9
2012-10-11,10.3,18.5,9.8
2012-10-12,8.2,12.6,6.8
2012-10-13,5.7,11.8,3.4
2012-10-14,1.5,12.4,0.6
2012-10-15,15.1,14.0,8.0
2012-10-16,0.6,14.8,8.0
2012-10-17,10.9,15.4,9.9
2012-10-18,1.9,15.5,7.4
2012-10-19,0.2,14.6,5.4
2012-10-20,0.2,16.6,4.9
2012-10-21,0.4,13.8,4.7
2012-10-22,0.4,14.0,10.3
2012-10-23,0.6,14.5,11.5
2012-10-24,0.4,13.3,11.7
2012-10-25,1.3,15.3,9.2
2012-10-26,1.3,9.2,3.5
2012-10-27,0.0,8.4,0.3
2012-10-28,0.8,9.9,-0.2
2012-10-29,2.1,13.6,7.5
2012-10-30,0.2,10.9,5.1
2012-10-31,11.3,12.3,4.9
2012-11-01,8.8,9.3,3.1
2012-11-02,5.9,8.7,3.2
2012-11-03,1.7,8.6,3.1
2012-11-04,8.0,10.9,2.4
2012-11-05,1.3,9.5,1.5
2012-11-06,0.2,11.1,2.0
2012-11-07,0.2,10.4,7.9
2012-11-08,0.6,11.5,5.6
2012-11-09,1.7,10.8,6.4
2012-11-10,6.5,10.6,2.8
2012-11-11,2.1,11.3,2.3
2012-11-12,3.2,13.2,7.6
2012-11-13,0.0,13.1,9.4
2012-11-14,0.0,12.8,3.5
2012-11-15,0.0,9.0,2.9
2012-11-16,7.1,12.2,7.1
2012-11-17,0.8,12.3,1.9
2012-11-18,0.0,10.9,0.2
2012-11-19,0.6,13.1,6.8
2012-11-20,10.7,14.3,7.7
2012-11-21,24.8,11.2,5.8
2012-11-22,22.7,13.2,6.4
2012-11-23,0.0,10.5,1.8
2012-11-24,32.6,10.5,0.9
2012-11-25,12.0,11.3,5.9
2012-11-26,4.8,9.0,5.3
2012-11-27,1.3,7.4,4.5
2012-11-28,0.0,7.2,-0.9
2012-11-29,0.2,6.2,-3.5
2012-11-30,0.0,7.8,-2.9
2012-12-01,1.9,7.2,-2.9
2012-12-02,4.8,10.2,-0.7
2012-12-03,4.8,10.8,3.8
2012-12-04,6.9,6.6,2.6
2012-12-05,2.7,5.1,-0.2
2012-12-06,7.8,7.1,-2.7
2012-12-07,5.3,7.3,3.4
2012-12-08,0.0,8.3,0.3
2012-12-09,3.2,8.0,4.5
2012-12-10,0.2,6.8,-1.8
2012-12-11,0.2,3.5,-3.0
2012-12-12,0.2,4.4,-1.9
2012-12-13,0.0,3.1,-0.8
2012-12-14,15.5,11.2,2.7
2012-12-15,5.0,10.4,6.1
2012-12-16,2.5,10.7,6.2
2012-12-17,13.9,9.1,5.2
2012-12-18,1.5,10.4,2.9
2012-12-19,11.1,11.0,4.0
2012-12-20,19.7,12.2,7.6
2012-12-21,2.5,9.5,5.9
2012-12-22,37.0,13.7,7.8
2012-12-23,3.4,13.2,8.2
2012-12-24,20.0,10.5,7.2
2012-12-25,8.0,9.6,5.5
2012-12-26,6.5,11.1,5.9
2012-12-27,4.8,9.3,5.6
2012-12-28,3.6,11.9,6.2
2012-12-29,24.6,11.7,4.1
2012-12-30,5.9,10.4,3.8
2012-12-31,15.3,10.9,6.4
2013-01-01,0.42,7.7,3.7
2013-01-02,0.63,10.4,4.4
2013-01-03,0.21,11.2,9.3
2013-01-04,0.00,10.4,8.3
2013-01-05,0.00,12.2,3.9
2013-01-06,0.21,9.7,0.5
2013-01-07,0.42,11.8,8.3
2013-01-08,0.00,12.2,8.9
2013-01-09,0.42,8.9,5.7
2013-01-10,3.36,7.8,2.6
2013-01-11,0.42,9.0,1.7
2013-01-12,16.59,7.7,2.6
2013-01-13,0.00,4.1,0.6
2013-01-14,5.67,7.5,0.6
2013-01-15,1.89,6.2,1.1
2013-01-16,0.00,3.7,0.9
2013-01-17,0.21,4.4,1.1
2013-01-18,10.92,4.1,0.2
2013-01-19,0.00,0.3,-1.0
2013-01-20,0.00,-0.6,-1.8
2013-01-21,0.00,3.9,-4.0
2013-01-22,17.85,2.4,-0.1
2013-01-23,0.84,0.8,0.0
2013-01-24,4.20,3.2,-2.2
2013-01-25,9.03,9.3,-2.4
2013-01-26,2.31,11.0,3.1
2013-01-27,7.98,11.9,4.6
2013-01-28,13.65,11.3,2.9
2013-01-29,16.38,12.9,8.4
2013-01-30,13.44,12.2,6.4
2013-01-31,4.41,9.9,7.4
2013-02-01,11.13,8.4,4.1
2013-02-02,0.00,6.8,1.0
2013-02-03,0.42,9.6,-0.1
2013-02-04,0.84,9.6,6.2
2013-02-05,4.83,6.8,2.4
2013-02-06,0.63,6.8,1.7
2013-02-07,8.61,5.8,1.0
2013-02-08,1.47,7.2,0.9
2013-02-09,1.26,8.5,5.1
2013-02-10,13.02,8.5,4.0
2013-02-11,0.21,4.8,-2.0
2013-02-12,0.00,3.3,1.4
2013-02-13,2.52,9.6,1.5
2013-02-14,9.66,10.1,5.1
2013-02-15,0.21,10.5,2.8
2013-02-16,0.00,9.8,-0.2
2013-02-17,0.00,9.2,2.5
2013-02-18,0.00,8.4,4.2
2013-02-19,0.00,8.5,0.2
2013-02-20,0.21,6.0,0.1
2013-02-21,0.00,2.2,-1.4
2013-02-22,0.00,1.4,-1.6
2013-02-23,0.00,1.5,-1.4
2013-02-24,0.00,2.8,-2.1
2013-02-25,0.00,4.3,-1.3
2013-02-26,0.00,4.2,2.6
2013-02-27,0.21,3.8,-0.4
2013-02-28,0.00,6.2,-2.2
2013-03-01,0.00,6.2,0.8
2013-03-02,0.00,3.9,-2.5
2013-03-03,0.00,4.4,-3.7
2013-03-04,0.00,6.1,2.9
2013-03-05,0.00,13.3,1.9
2013-03-06,0.21,11.7,5.9
2013-03-07,4.62,10.2,8.0
2013-03-08,1.05,15.0,7.5
2013-03-09,0.42,13.1,2.2
2013-03-10,5.25,7.6,-0.2
2013-03-11,0.00,1.2,-2.7
2013-03-12,0.00,2.7,-3.2
2013-03-13,0.00,7.0,-3.5
2013-03-14,0.21,8.0,-4.8
2013-03-15,16.38,9.3,3.6
2013-03-16,10.92,9.9,2.0
2013-03-17,0.00,9.4,0.4
2013-03-18,0.21,9.9,-2.5
2013-03-19,1.47,9.1,-2.0
2013-03-20,2.52,9.7,1.3
2013-03-21,18.06,7.0,2.7
2013-03-22,24.78,7.7,5.3
2013-03-23,0.00,5.4,0.9
2013-03-24,0.00,0.9,-1.0
2013-03-25,0.00,1.4,-1.0
2013-03-26,0.00,2.1,-1.9
2013-03-27,0.00,4.1,-1.2
2013-03-28,0.00,5.7,-3.5
2013-03-29,0.00,5.7,-2.1
2013-03-30,0.00,6.6,-1.5
2013-03-31,0.00,6.1,-1.4
2013-04-01,0.00,4.1,0.0
2013-04-02,0.00,8.5,-1.9
2013-04-03,0.00,8.2,-2.4
2013-04-04,0.00,3.8,-0.7
2013-04-05,0.00,7.8,-1.1
2013-04-06,0.00,9.7,-4.5
2013-04-07,0.21,7.1,-2.7
2013-04-08,0.42,7.1,3.1
2013-04-09,2.52,7.1,3.0
2013-04-10,3.99,9.2,0.6
2013-04-11,5.88,13.8,4.6
2013-04-12,7.77,11.7,5.2
2013-04-13,3.15,13.5,4.0
2013-04-14,2.31,15.2,10.6
2013-04-15,0.42,15.4,9.8
2013-04-16,0.42,15.9,9.0
2013-04-17,0.21,14.6,8.6
2013-04-18,0.42,13.0,6.9
2013-04-19,2.10,12.4,2.8
2013-04-20,0.00,13.6,0.2
2013-04-21,0.63,10.5,-1.8
2013-04-22,1.05,12.4,4.8
2013-04-23,0.00,15.0,6.6
2013-04-24,0.00,15.3,7.5
2013-04-25,0.63,13.8,7.2
2013-04-26,0.63,10.5,3.2
2013-04-27,0.63,11.9,0.8
2013-04-28,1.47,11.6,-0.1
2013-04-29,0.00,12.2,4.2
2013-04-30,0.21,13.4,1.2
2013-05-01,0.00,15.1,-0.8
2013-05-02,0.21,17.0,1.9
2013-05-03,0.00,14.2,2.6
2013-05-04,2.10,13.6,8.2
2013-05-05,0.00,16.8,4.9
2013-05-06,0.21,18.7,2.2
2013-05-07,0.84,18.8,6.5
2013-05-08,4.20,15.2,6.9
2013-05-09,6.93,12.1,6.8
2013-05-10,7.77,14.1,6.2
2013-05-11,2.52,12.7,5.5
2013-05-12,0.42,11.6,5.2
2013-05-13,1.68,12.4,7.3
2013-05-14,15.33,9.6,2.3
2013-05-15,11.76,11.4,2.9
2013-05-16,12.18,10.0,0.8
2013-05-17,5.46,13.7,-0.6
2013-05-18,0.21,15.2,2.4
2013-05-19,0.00,15.6,4.6
2013-05-20,0.00,15.3,6.6
2013-05-21,0.00,11.9,8.1
2013-05-22,0.00,14.3,5.8
2013-05-23,0.00,11.3,5.7
2013-05-24,0.21,11.9,5.3
2013-05-25,0.00,15.7,1.5
2013-05-26,0.21,16.9,1.6
2013-05-27,10.71,14.1,2.3
2013-05-28,0.84,13.2,3.6
2013-05-29,1.47,15.7,7.0
2013-05-30,0.00,17.3,9.5
2013-05-31,0.21,18.9,7.8
2013-06-01,0.00,15.0,7.7
2013-06-02,0.00,17.4,7.3
2013-06-03,0.00,19.8,5.3
2013-06-04,0.00,19.9,2.9
2013-06-05,0.00,19.7,7.9
2013-06-06,0.21,21.3,7.2
2013-06-07,0.00,20.1,11.2
2013-06-08,0.00,20.4,9.5
2013-06-09,0.00,20.3,6.1
2013-06-10,1.05,16.1,5.8
2013-06-11,2.10,18.4,10.3
2013-06-12,1.89,18.5,12.6
2013-06-13,1.89,16.4,9.5
2013-06-14,1.26,16.9,9.8
2013-06-15,6.30,15.9,8.9
2013-06-16,5.25,14.0,9.7
2013-06-17,3.57,20.7,10.8
2013-06-18,0.21,21.8,13.6
2013-06-19,0.00,21.9,11.9
2013-06-20,6.09,17.0,12.1
2013-06-21,0.84,16.7,11.5
2013-06-22,4.83,16.1,11.7
2013-06-23,1.89,13.1,10.0
2013-06-24,0.00,16.8,7.1
2013-06-25,0.00,20.2,3.8
2013-06-26,0.00,19.4,7.9
2013-06-27,1.89,18.8,9.1
2013-06-28,1.47,16.4,13.5
2013-06-29,0.00,17.9,12.8
2013-06-30,0.21,19.1,11.0
2013-07-01,0.00,18.7,9.7
2013-07-02,0.21,16.1,7.8
2013-07-03,0.42,16.7,12.4
2013-07-04,0.42,20.1,11.6
2013-07-05,0.00,23.0,10.7
2013-07-06,0.00,22.3,6.2
2013-07-07,0.00,26.9,8.3
2013-07-08,0.21,27.1,12.8
2013-07-09,0.00,26.1,13.2
2013-07-10,0.00,26.4,9.7
2013-07-11,0.00,23.3,10.8
2013-07-12,0.00,26.6,6.9
2013-07-13,0.00,29.6,11.3
2013-07-14,0.00,28.9,10.8
2013-07-15,0.00,27.1,12.4
2013-07-16,0.21,25.2,11.1
2013-07-17,0.00,27.0,11.2
2013-07-18,0.00,29.5,11.7
2013-07-19,0.00,28.4,11.6
2013-07-20,0.21,26.8,13.0
2013-07-21,0.00,26.2,14.7
2013-07-22,0.00,29.1,15.1
2013-07-23,0.00,24.9,14.0
2013-07-24,7.35,24.4,13.4
2013-07-25,1.05,23.7,13.0
2013-07-26,0.00,24.5,10.3
2013-07-27,0.21,21.2,9.0
2013-07-28,6.09,21.0,12.7
2013-07-29,2.31,21.5,14.7
2013-07-30,1.26,21.2,14.6
2013-07-31,1.05,21.1,15.8
2013-08-01,0.00,27.2,14.0
2013-08-02,13.23,23.3,11.9
2013-08-03,7.98,21.7,13.6
2013-08-04,4.20,20.2,15.3
2013-08-05,17.22,19.8,11.9
2013-08-06,0.21,21.6,10.2
2013-08-07,0.00,23.1,8.6
2013-08-08,0.00,23.2,9.6
2013-08-09,1.05,20.0,11.4
2013-08-10,2.10,21.5,12.1
2013-08-11,1.26,20.9,12.4
2013-08-12,0.00,19.1,11.6
2013-08-13,0.00,18.0,7.7
2013-08-14,5.67,22.5,11.5
2013-08-15,2.52,22.7,16.5
2013-08-16,0.84,21.6,12.1
2013-08-17,2.73,18.8,12.4
2013-08-18,7.14,20.6,12.1
2013-08-19,0.00,19.5,11.0
2013-08-20,0.21,22.9,9.8
2013-08-21,0.00,24.5,9.9
2013-08-22,0.00,24.5,12.8
2013-08-23,0.63,24.0,11.0
2013-08-24,0.21,18.2,11.6
2013-08-25,0.21,19.8,10.3
2013-08-26,0.00,24.4,12.0
2013-08-27,0.21,23.1,10.1
2013-08-28,0.21,23.6,9.1
2013-08-29,0.21,21.1,8.8
2013-08-30,0.42,20.1,13.9
2013-08-31,0.21,17.9,6.1
2013-09-01,0.00,19.6,4.6
2013-09-02,0.00,20.7,11.5
2013-09-03,0.00,25.8,11.9
2013-09-04,0.41,25.3,9.4
2013-09-05,1.20,22.6,10.5
2013-09-06,2.73,18.1,7.9
2013-09-07,0.63,17.0,6.9
2013-09-08,0.42,16.2,7.8
2013-09-09,0.21,18.8,10.7
2013-09-10,0.42,17.3,9.9
2013-09-11,3.15,16.2,12.4
2013-09-12,1.68,19.9,15.3
2013-09-13,18.69,17.3,10.0
2013-09-14,0.21,16.3,7.5
2013-09-15,6.30,16.2,4.7
2013-09-16,7.98,13.8,8.0
2013-09-17,10.29,16.3,9.6
2013-09-18,3.78,15.2,9.4
2013-09-19,0.63,18.4,9.2
2013-09-20,0.21,16.3,9.3
2013-09-21,0.21,20.6,9.9
2013-09-22,0.00,19.8,15.6
2013-09-23,0.21,18.3,14.0
2013-09-24,0.00,21.0,14.2
2013-09-25,3.15,18.9,11.1
2013-09-26,0.21,17.1,13.4
2013-09-27,0.00,18.5,13.2
2013-09-28,10.50,16.7,11.3
2013-09-29,0.21,16.2,12.1
2013-09-30,0.00,16.8,13.0
2013-10-01,8.61,17.5,15.1
2013-10-02,9.45,19.7,13.8
2013-10-03,19.95,19.9,15.5
2013-10-04,4.83,18.8,13.0
2013-10-05,1.47,17.8,6.7
2013-10-06,0.00,20.0,4.7
2013-10-07,0.21,20.3,6.8
2013-10-08,0.63,19.1,9.5
2013-10-09,1.26,14.3,6.9
2013-10-10,0.00,12.4,3.8
2013-10-11,0.00,14.8,4.9
2013-10-12,1.05,14.2,5.2
2013-10-13,13.86,13.8,9.1
2013-10-14,0.63,14.0,8.7
2013-10-15,0.00,15.3,4.5
2013-10-16,11.55,16.7,9.0
2013-10-17,2.94,19.0,10.9
2013-10-18,4.41,15.3,10.7
2013-10-19,8.61,17.5,12.0
2013-10-20,5.67,16.0,11.6
2013-10-21,18.48,16.6,13.1
2013-10-22,9.87,17.9,13.9
2013-10-23,2.94,15.9,6.6
2013-10-24,7.98,15.1,5.5
2013-10-25,9.66,17.3,14.2
2013-10-26,5.88,16.1,10.0
2013-10-27,18.90,14.0,9.7
2013-10-28,18.90,16.2,8.1
2013-10-29,4.20,13.0,6.4
2013-10-30,1.05,14.8,4.6
2013-10-31,0.42,12.9,9.1
2013-11-01,1.26,13.8,10.7
2013-11-02,5.67,12.9,7.2
2013-11-03,20.37,12.8,6.2
2013-11-04,1.05,12.2,4.6
2013-11-05,8.19,12.5,8.5
2013-11-06,12.39,14.6,10.1
2013-11-07,0.63,11.5,6.8
2013-11-08,8.19,9.0,5.5
2013-11-09,9.87,10.0,4.6
2013-11-10,4.41,10.8,5.1
2013-11-11,10.50,14.3,8.4
2013-11-12,1.26,12.3,1.2
2013-11-13,1.89,11.1,-0.5
2013-11-14,7.14,9.8,5.9
2013-11-15,0.21,10.2,4.7
2013-11-16,0.00,9.3,0.9
2013-11-17,0.00,8.7,6.9
2013-11-18,1.68,9.9,5.3
2013-11-19,2.94,6.6,1.4
2013-11-20,6.30,8.8,1.2
2013-11-21,0.00,8.4,3.6
2013-11-22,0.00,7.6,-1.9
2013-11-23,0.21,7.4,-3.7
2013-11-24,0.21,7.1,-3.1
2013-11-25,0.00,7.1,-2.0
2013-11-26,0.00,5.8,-4.9
2013-11-27,0.00,9.9,3.9
2013-11-28,0.00,9.4,6.8
2013-11-29,0.63,10.1,6.9
2013-11-30,0.42,9.0,-1.0
2013-12-01,0.00,6.9,-2.0
2013-12-02,0.00,8.2,4.7
2013-12-03,0.00,6.1,4.4
2013-12-04,0.84,8.6,-1.5
2013-12-05,0.21,10.3,-1.7
2013-12-06,0.21,9.7,3.2
2013-12-07,1.68,9.5,5.4
2013-12-08,0.42,11.0,6.2
2013-12-09,0.42,10.9,2.4
2013-12-10,0.00,11.2,6.0
2013-12-11,0.21,10.4,3.2
2013-12-12,0.63,13.1,3.3
2013-12-13,3.36,13.1,5.8
2013-12-14,6.51,12.2,5.9
2013-12-15,9.03,14.5,5.7
2013-12-16,7.77,13.2,5.8
2013-12-17,4.20,6.4,2.0
2013-12-18,23.31,12.2,5.5
2013-12-19,4.20,8.1,2.4
2013-12-20,3.36,11.2,3.3
2013-12-21,9.87,11.8,6.8
2013-12-22,8.40,9.6,4.5
2013-12-23,40.74,13.2,5.6
2013-12-24,4.62,10.7,3.7
2013-12-25,1.05,5.8,1.6
2013-12-26,5.25,10.9,2.4
2013-12-27,7.14,12.7,4.3
2013-12-28,0.21,8.3,1.7
2013-12-29,2.52,10.3,1.7
2013-12-30,15.33,11.4,5.2
2013-12-31,4.41,10.2,5.4
